FENGYUN 1C DEB, 30393

Orbit data source: Space-Track

FENGYUN 1C DEB, 30393 is space debris in SSO originally from a launch on Mon, 10 May 1999 UTC launched from the Taiyaun Space Center, China (TSC). Fengyun 1C debris stems from the Chinese weather satellite Fengyun-1C, which was intentionally destroyed by a Chinese anti-satellite missile in 2007. This event dramatically increased the amount of space debris, with thousands of trackable fragments posing hazards to satellites and human spaceflight. The Fengyun 1C debris cloud has become a focal point in discussions about space sustainability and the need for international regulations to prevent the creation of new debris.

Loading next visibility...
Identifier
30393, 1999-025ADG
Orbit
SSO
Country
Flag of CNCN / PRC
Related business
Manufacturer
Unknown
Mission
Spacecraft
Bus & Motor
Unknown
Mass
Unknown
Launch date (UTC)
1999-05-10 (27 years ago)
Launch vehicle
Unknown
Launch site
Taiyaun Space Center, China (TSC)
Object type
Payload
Rocket body
Debris
Shape & HBR
Unknown shape, 0.1 m
Radar Cross Section
Small (<0.1 m²)

Expand to show TLE details & history
Last TLE update: 1 day ago

TLE from 1 day ago
0 FENGYUN 1C DEB
1 30393U 99025ADG 25350.39997894  .00000400  00000-0  30225-3 0  9995
2 30393  99.1647  48.1861 0069599 249.8812 171.9977 13.98987633963811
Epoch: 2025-12-16T09:35Z
TLE epoch observation values (Epoch: 2025-12-16T09:35:58.180Z)
Latitude
60.7379°
Longitude
162.26403°
Altitude
957.768 km
Speed
7.353 km/s
True Right ascension
02h 06m 09s
True Declination
60° 35' 42"
Sunlit
Object was in full shadow at epoch
Visualization orbit readout
Latitude
Unknown
Longitude
Unknown
Altitude
Unknown
Speed
Unknown
Apparent Right ascension
Unknown
Apparent Declination
Unknown
Sunlit
N/A
Visualization observer readout
Local Sidereal Time
09:57:39
Azimuth
Unknown
Elevation
Unknown
Doppler factor
Unknown
Orbital elements
Apogee altitude
945.128 km
Perigee altitude
843.895 km
Semi-major axis
7,272.649 km
Eccentricity
0.00696
Inclination
99.1647°
RAAN
48.1861°
Arg. of periapsis
249.8812°
True anomaly
172.10778°
Mean anomaly
171.9977°
Eccentric anomaly
172.05283°
Mean motion
3.49949 °/min
Orbital period
102.87 mins
BSTAR
0.00030225
Loading maneuver chart data...
Computing Atmospheric mass density...

Documentation

Showing up to 5 results
|